Terminal Aerodrome Forecast
Issued by NWS Raleigh/Durham, NC

Home | Current Version | Previous Version | Text Only | Print | Product List | Glossary On
Versions: 1 2 3 4 5 6 7 8 9 10 11 12 13 14 15 16 17 18 19 20 21 22 23 24 25 26 27 28 29 30 31 32 33 34 35 36 37 38 39 40 41 42 43 44 45 46 47 48 49 50
000
FTUS42 KRAH 220605 AAA
TAFRDU
TAF AMD
KRDU 220605Z 2206/2306 07004KT 4SM BR BKN005 OVC020
      TEMPO 2209/2212 2SM BR OVC003
     FM221400 06005KT P6SM BKN015 BKN150
     FM221800 06005KT P6SM VCSH SCT025 BKN035 BKN150
     FM230200 VRB04KT P6SM BKN012 BKN120=

USA.gov is the U.S. government's official web portal to all federal, state and local government web resources and services.